Regional Weather Roundup
Issued by NWS

Home | Current Version | Previous Version | Text Only | Print | Product List | Glossary Off
Versions: 1 2 3 4 5 6 7 8 9 10 11 12 13 14 15 16 17 18 19 20 21 22 23 24 25 26 27 28 29 30 31 32 33 34 35 36 37 38 39 40 41 42 43 44 45 46 47 48 49 50

000
ASUS43 KMPX 231101
RWRMN
WEATHER ROUNDUP FOR MINNESOTA
NATIONAL WEATHER SERVICE TWIN CITIES/CHANHASSEN MN
500 AM CST MON JAN 23 2017


NOTE: "FAIR" INDICATES FEW OR NO CLOUDS BELOW 12,000 FEET WITH NO
SIGNIFICANT WEATHER AND/OR OBSTRUCTIONS TO VISIBILITY. N/A MEANS
CURRENT SKY AND/OR WEATHER CONDITIONS ARE NOT AVAILABLE.

MNZ060>063-068>070-231200-
   Twin Cities Metro

CITY           SKY/WX    TMP DP  RH WIND       PRES   REMARKS
TWIN CITIES    DRIZZLE   34  32  92 W3        29.81S FOG
ST PAUL        CLOUDY    34  34 100 W6        29.82S FOG     WCI  29
CRYSTAL        CLOUDY    33  30  88 W5        29.79F FOG     WCI  29
BLAINE         CLOUDY    36  36 100 W3        29.80S FOG
LAKEVILLE      CLOUDY    30  30 100 W6        29.80F FOG     WCI  24
EDEN PRAIRIE   CLOUDY    33  32  96 CALM      29.80S FOG
SOUTH ST PAUL  CLOUDY    33  33  99 CALM      29.81S FOG
LAKE ELMO      CLOUDY    34  34 100 W5        29.81S FOG     WCI  30
$$
MNZ001>005-007-008-013>017-022>024-027-028-231200-
   Northwest Minnesota

CITY           SKY/WX    TMP DP  RH WIND       PRES   REMARKS
BEMIDJI        CLOUDY    30  29  95 SW3       29.76S
HALLOCK        CLOUDY    32  30  93 SW6       29.75S WCI  26
ROSEAU         MOCLDY    34  28  80 W3        29.74R FOG
WARROAD        CLOUDY    32  28  86 SW3       29.74R FOG
THIEF RVR FALL CLOUDY    30  29  96 SW8       29.77S WCI  22
CROOKSTON      CLOUDY    30  30 100 W7        29.79R WCI  23
FOSSTON        CLOUDY    28  28 100 SW6       29.78R WCI  22
DETROIT LAKES  MOCLDY    32  30  93 W5        29.80R WCI  27
MOORHEAD       CLOUDY    34  27  75 W10       29.82R WCI  26
PARK RAPIDS    CLOUDY    31  27  85 W7        29.77R WCI  24
MAHNOMEN       CLOUDY    30  28  94 SW7       29.78R WCI  23
$$
MNZ006-009>011-018-025>026-231200-
   North Central Minnesota

CITY           SKY/WX    TMP DP  RH WIND       PRES   REMARKS
BAUDETTE       CLOUDY    32  31  96 CALM      29.73R
FLAG ISLAND    LGT SNOW  32  30  93 SW3       29.72R
INTL FALLS     FOG       33  32  96 CALM      29.74S VSB 1/4
WASKISH        CLOUDY    32  30  93 SW6       29.76R FOG     WCI  26
BIG FORK       FOG       34  32  93 W5        29.76R VSB 3/4 WCI  30
LONGVILLE      FOG       32  32 100 CALM      29.77R VSB 1
GRAND RAPIDS   CLOUDY    33  32  96 W3        29.78S FOG
CRANE LAKE     LGT SNOW  32  32 100 CALM      29.77S
ORR            CLOUDY    32  30  93 CALM      29.72F
COOK           FOG       34  34 100 CALM      29.75S VSB 1
WALKER         CLOUDY    30  29  95 W6        29.77R WCI  24
$$
MNZ012-019>021-037-231200-
   Northeast Minnesota

CITY           SKY/WX    TMP DP  RH WIND       PRES   REMARKS
DULUTH         FOG       35  34  96 NW6       29.74S VSB 1   WCI  30
ELY            CLOUDY    32  32 100 CALM      29.74R FOG
HIBBING        CLOUDY    32  32 100 CALM      29.75S
EVELETH        CLOUDY    34  33  98 W3        29.76S
DULUTH HARBOR  CLOUDY    36  34  93 SW6       29.77F
TWO HARBORS    CLOUDY    37  34  87 CALM      29.73S
SILVER BAY     CLOUDY    36  34  93 CALM      29.73S
GRAND MARAIS     N/A     35  33  92 CALM      29.75S
G MARAIS ARPRT CLOUDY    30  27  86 CALM      29.71F
$$
MNZ029>031-032-039>041-046>048-054>057-064-231200-
   West Central Minnesota

CITY           SKY/WX    TMP DP  RH WIND       PRES   REMARKS
FERGUS FALLS   CLOUDY    30  30 100 NW5       29.85S WCI  25
WHEATON        CLOUDY    39  36  87 W6        29.85S
MORRIS         CLOUDY    34  28  80 NW10      29.82R WCI  26
ALEXANDRIA     CLOUDY    31  29  92 NW7       29.80S WCI  24
ELBOW LAKE     CLOUDY    31  30  97 NW7       29.82S FOG     WCI  24
WADENA         CLOUDY    28  28 100 NW7       29.79S WCI  21
GLENWOOD       CLOUDY    30  28  93 W9        29.81R WCI  22
APPLETON       CLOUDY    36  28  75 NW9       29.84R
ORTONVILLE     CLOUDY    32  28  86 CALM      29.84R
MADISON        CLOUDY    36  34  93 NW7       29.85R
WILLMAR        CLOUDY    34  32  93 CALM      29.83S FOG
$$
MNZ033>034-036-042>043-049>051-058-059-231200-
   Central Minnesota

CITY           SKY/WX    TMP DP  RH WIND       PRES   REMARKS
ST CLOUD       CLOUDY    32  32 100 W6        29.79S FOG     WCI  26
SAUK CENTRE    CLOUDY    31  29  94 W6        29.80S WCI  25
PAYNESVILLE    CLOUDY    32  32 100 NW7       29.81S WCI  25
AITKIN         CLOUDY    36  30  80 CALM      29.76S FOG
PINE RIVER     CLOUDY    30  30 100 CALM      29.81S FOG
BRAINERD       CLOUDY    32  32 100 W5        29.78S FOG     WCI  27
STAPLES        CLOUDY    30  30 100 W6        29.79R WCI  24
LONG PRAIRIE   CLOUDY    30  30 100 CALM      29.80R FOG
LITTLE FALLS   CLOUDY    32  30  93 W5        29.80R FOG     WCI  27
LITCHFIELD     CLOUDY    34  30  86 W7        29.81S WCI  28
BUFFALO        CLOUDY    32  32  98 W6        29.81F FOG     WCI  27
MAPLE LAKE     CLOUDY    33  33  99 W3        29.81F FOG
HUTCHINSON     CLOUDY    33  32  98 W8        29.83S FOG     WCI  26
$$
MNZ037-044-045-052-053-231200-
   East Central Minnesota

CITY           SKY/WX    TMP DP  RH WIND       PRES   REMARKS
PRINCETON      CLOUDY    34  34 100 CALM      29.79F FOG
MORA           CLOUDY    32  32 100 CALM      29.79F FOG
CAMBRIDGE      CLOUDY    36  36 100 W3        29.78S FOG
RUSH CITY      CLOUDY    32  32 100 W3        29.78F FOG
MOOSE LAKE     CLOUDY    34  34 100 W3        29.75S FOG
HINCKLEY       CLOUDY    34  34 100 CALM      29.77F
CLOQUET        CLOUDY    34  34 100 W3        29.75F
MCGREGOR       CLOUDY    34  32  93 CALM      29.77S
$$
MNZ071>073-080-081-089-090-097-098-231200-
   Southwest Minnesota

CITY           SKY/WX    TMP DP  RH WIND       PRES   REMARKS
MONTEVIDEO     CLOUDY    34  34 100 NW9       29.85F WCI  26
GRANITE FALLS  CLOUDY    34  32  90 NW10      29.86S WCI  26
CANBY          CLOUDY    33  31  90 CALM      29.86S
MARSHALL       CLOUDY    33  29  85 NW12      29.84F WCI  24
REDWOOD FALLS  CLOUDY    33  28  81 NW6       29.83S WCI  28
OLIVIA         CLOUDY    32  30  93 NW6       29.83S WCI  26
PIPESTONE      CLOUDY    30  28  93 NW7       29.82F WCI  23
WINDOM         CLOUDY    34  28  80 NW15      29.83S WCI  24
WORTHINGTON    CLOUDY    32  29  88 NW10      29.83F WCI  24
JACKSON        CLOUDY    32  28  86 NW7       29.83F WCI  26
TRACY          CLOUDY    33  30  88 NW8       29.84S WCI  26
SLAYTON        CLOUDY    31  29  92 NW10      29.84S WCI  22
$$
MNZ065>067-074>077-082>085-091>093-231200-
   South Central Minnesota

CITY           SKY/WX    TMP DP  RH WIND       PRES   REMARKS
MANKATO        CLOUDY    32  30  92 W6        29.83S WCI  26
NEW ULM        CLOUDY    32  30  93 W7        29.83S WCI  26
ST JAMES       CLOUDY    34  28  80 W6        29.85S WCI  29
FAIRMONT       CLOUDY    33  28  81 NW9       29.84F WCI  25
GLENCOE        CLOUDY    33  34 100 W6        29.81S FOG     WCI  28
OWATONNA       CLOUDY    32  30  93 W5        29.81F FOG     WCI  27
WASECA         CLOUDY    32  32 100 W5        29.83S FOG     WCI  27
ALBERT LEA     CLOUDY    32  32 100 W5        29.82R FOG     WCI  27
$$
MNZ078>079-086>088-094>096-231200-
   Southeast Minnesota

CITY           SKY/WX    TMP DP  RH WIND       PRES   REMARKS
ROCHESTER      CLOUDY    31  31 100 W12       29.79F FOG     WCI  22
RED WING       CLOUDY    34  32  93 W3        29.80F FOG
STANTON        CLOUDY    33  32  94 CALM      29.80S FOG
DODGE CENTER   MIX PCPN  30  30 100 CALM      29.79F
WINONA         CLOUDY    34  32  93 NW5       29.81F WCI  30
PRESTON        CLOUDY    31  30  94 NW12      29.79F FOG     WCI  22
$$
ABBREVIATIONS USED IN REMARKS
   TC - TEMPERATURES IN CELSIUS
  WCI - WIND CHILL INDEX
   HX - HEAT INDEX
  VSB - VISIBILITY
$$



USA.gov is the U.S. government's official web portal to all federal, state and local government web resources and services.